Find Iridium Next SV166

NORAD ID: 43570 Int'l Des: 2018-061 Owner: IRIDS Country: US Constellation: Iridium NEXT operational
LEOCIRCULARPOLAR

实时位置

正在加载3D地球...

关于 Iridium Next SV166

正在加载描述...

即将过境

Passes for default location (London). Set your location on the main map for personalized predictions.

高度历史

Loading altitude history...

两行轨道根数

1 43570U 18061B 26104.94521714 .00000116 00000-0 34236-4 0 9991
2 43570 86.3920 83.1910 0002415 87.9715 272.1757 14.34213557404330
Epoch: Apr 14, 2026 • Age: 7 hours

当前状态

高度 782.7 km
速度 7.46 km/s
星下点 -9.86°S, 159°E
发射日期 Jul 25, 2018
运行时间 7.7 years
类型 communications

技术详情

分类 Payload
质量 860.00 kg
干质量 700.00 kg
总质量 860.00 kg
长度 3.10 m
直径 1.50 m
跨度 9.40 m
形状 Half Hex Prism+2 pan
制造商 NGISGA
平台类型 EliteBus
阶段状态 In Orbit
所有者/国家 IRIDS/US

Most Searched